Overview Statistics Trail Chart Weather Telemetry Raw packets
 

This is the latest recevied weather packets stored in our database for station/object SV9TNF-56. If no packets are shown the sender has not sent any weather packets the latest 10 day(s).

<< 45 46 47 48 49 50 51 >>
Time Temp. Humidity Pressure Rain* Wind** Luminosity Snow
1788355426 26.11° C 65% 1011.2 hPa 0 mm 12.07 m/s, 146° - -
1788355126 26.11° C 65% 1010.8 hPa 0 mm 23.25 m/s, 133° - -
1788354826 26.11° C 64% 1011.2 hPa 0 mm 17.88 m/s, 147° - -
1788354526 26.67° C 61% 1011.2 hPa 0 mm 14.75 m/s, 120° - -
1788354225 26.67° C 59% 1011.2 hPa 0 mm 12.07 m/s, 162° - -
1788353926 26.67° C 57% 1011.2 hPa 0 mm 15.2 m/s, 140° - -
1788353626 26.67° C 56% 1011.2 hPa 0 mm 8.05 m/s, 164° - -
1788353325 26.67° C 59% 1011.2 hPa 0 mm 17.88 m/s, 146° - -
1788353025 26.11° C 62% 1011.2 hPa 0 mm 16.54 m/s, 120° - -
1788352725 26.11° C 63% 1011.5 hPa 0 mm 18.33 m/s, 84° - -
1788352425 26.67° C 60% 1011.2 hPa 0 mm 13.86 m/s, 204° - -
1788352125 26.67° C 59% 1011.5 hPa 0 mm 12.07 m/s, 164° - -
1788351825 26.67° C 61% 1011.5 hPa 0 mm 6.26 m/s, 186° - -
1788351525 26.67° C 58% 1011.5 hPa 0 mm 13.86 m/s, 176° - -
1788351225 26.67° C 58% 1011.2 hPa 0 mm 12.52 m/s, 198° - -
1788350925 27.22° C 58% 1011.2 hPa 0 mm 5.36 m/s, 246° - -
1788350624 26.67° C 57% 1011.5 hPa 0 mm 10.28 m/s, 216° - -
1788350324 26.67° C 58% 1011.5 hPa 0 mm 11.18 m/s, 102° - -
1788350024 27.22° C 60% 1011.5 hPa 0 mm 6.26 m/s, 184° - -
1788349724 27.22° C 58% 1011.9 hPa 0 mm 4.92 m/s, 176° - -
1788349424 27.22° C 55% 1011.9 hPa 0 mm 11.18 m/s, 155° - -
1788349124 27.22° C 57% 1011.5 hPa 0 mm 13.86 m/s, 138° - -
1788348824 26.67° C 57% 1011.9 hPa 0 mm 12.07 m/s, 162° - -
1788348524 27.22° C 58% 1011.5 hPa 0 mm 14.75 m/s, 167° - -
1788348224 27.22° C 57% 1011.9 hPa 0 mm 4.47 m/s, 145° - -

* Rain latest hour (hover to see other rain measurements)
** Current wind speed in m/s (hover to see current wind gust speed)